SCP
1 1 1 1 1 1 1 0 0 0 0 0 0 0 0 0 0 0 0 0 0 0 0 0 0 0 0 0 0 0 0 0 0 0 0 1 1 1
1 1 1 1 1 1 1 1 0 0 0 0 0 0 0 0 0 0 0 0 0 0 0 0 0 0 0 0 0 0 0 0 0 0 0 1 1 1
1 1 1 1 1 1 1 1 1 0 0 0 0 1 1 1 0 0 0 0 0 0 0 0 0 0 0 0 0 0 0 0 0 0 0 0 0 1
1 1 1 1 1 1 1 1 0 0 0 0 0 1 1 0 0 0 0 0 0 0 0 0 0 0 0 0 0 0 0 0 0 0 0 0 0 0
1 1 0 1 1 0 0 0 0 0 0 0 0 0 0 0 0 0 0 0 0 0 0 0 0 0 0 0 0 0 0 0 0 0 0 0 0 0
0 0 0 0 0 0 0 0 0 0 0 0 0 0 0 0 0 0 0 0 0 0 0 0 0 0 0 0 0 0 0 0 0 0 0 0 0 0
0 0 0 0 0 0 0 0 0 0 0 0 0 0 0 0 0 0 0 0 0 0 0 0 0 0 0 0 0 0 0 0 0 0 0 0 0 0
0 0 0 0 0 0 0 0 0 0 0 0 0 0 0 0 0 0 0 0 0 0 0 0 0 0 0 0 0 0 0 0 0 0 0 0 0 0
0 0 0 0 0 0 0 0 0 0 0 0 0 0 0 0 0 0 0 0 0 0 0 0 0 0 0 0 0 0 0 0 0 0 0 0 0 0
0 0 0 0 0 0 0 0 0 0 0 0 0 0 0 0 0 0 0 0 0 0 0 0 0 0 0 0 0 0 0 0 0 0 0 0 0 0
0 0 0 0 0 0 0 0 0 0 0 0 0 0 0 0 0 0 0 0 0 0 0 0 0 0 0 0 0 0 0 0 0 0 0 0 0 0
0 0 0 0 0 0 0 0 0 0 0 0 0 0 0 0 0 0 0 0 0 0 0 0 0 0 0 0 0 0 0 0 0 0 0 0 0 0
0 0 0 0 0 0 0 0 0 0 0 0 0 0 0 0 0 0 0 0 0 0 0 0 0 0 0 0 0 0 0 0 0 0 0 0 0 0
0 0 0 0 0 0 0 0 0 0 0 0 0 0 0 0 0 0 0 0 0 0 0 0 0 0 0 0 0 0 0 0 0 0 0 0 0 0
0 0 0 0 0 0 0 0 0 0 0 0 0 0 0 0 0 0 0 0 0 0 0 0 0 0 0 0 0 0 0 0 0 0 0 0 0 0
0 0 0 0 0 0 0 0 0 0 0 0 0 0 0 0 0 0 0 0 0 0 0 0 0 0 0 0 0 0 0 0 0 0 0 0 0 0
0 0 0 0 0 0 0 0 0 0 0 0 0 0 0 0 0 0 0 0 0 0 0 0 0 0 0 0 0 0 0 0 0 0 0 0 0 0
0 0 0 0 0 0 0 0 0 0 0 0 0 0 0 0 0 0 0 0 0 0 0 0 0 0 0 0 0 0 0 0 0 0 0 0 0 0
0 0 0 0 0 0 0 0 0 0 0 0 0 0 0 0 0 0 0 0 0 0 0 0 0 0 0 0 0 0 0 0 0 0 0 0 0 0
0 0 0 0 0 0 0 0 0 0 0 0 0 0 0 0 0 0 0 0 0 0 0 0 0 0 0 0 0 0 0 0 0 0 0 0 0 0
0 0 0 0 0 0 0 0 0 0 0 0 0 0 0 0 0 0 0 0 0 0 0 0 0 0 0 0 0 0 0 0 0 0 0 0 0 0
0 0 0 0 0 0 0 0 0 0 0 0 0 0 0 0 0 0 0 0 0 0 0 0 0 0 0 0 0 0 0 0 0 0 0 0 0 0
0 0 0 0 0 0 0 0 0 0 0 0 0 0 0 0 0 0 0 0 0 0 0 0 0 0 0 0 0 0 0 0 0 0 0 0 0 0
Wind_Speed
3 2 2 1 2 1 0 1 1 2 2 1 2 2 2 1 1 2 1 3 5 5 5 5 4 4 5 6 7 9 11 12 14 15 16 17 22 26
3 2 1 1 1 1 1 1 1 1 1 2 2 3 3 4 2 2 2 3 6 6 5 4 4 4 5 6 8 10 11 13 15 16 17 17 19 24
1 2 3 4 3 3 3 2 2 1 1 2 2 3 3 4 4 3 2 2 3 7 6 4 3 4 5 7 9 10 12 14 15 17 18 19 20 23
4 5 5 5 5 4 3 3 3 2 2 2 3 3 3 4 4 3 3 3 1 3 5 3 3 4 5 7 8 10 12 14 15 16 17 18 20 23
7 7 7 7 6 4 4 4 4 4 2 2 2 2 2 3 4 4 5 4 4 2 2 2 3 4 6 7 8 9 12 13 13 14 15 16 19 23
9 8 8 7 6 5 5 6 5 4 3 3 3 4 4 5 4 4 3 3 4 5 3 2 3 4 4 6 7 9 10 11 11 11 12 15 18 21
7 7 8 8 9 7 7 5 6 6 5 5 5 5 5 6 6 5 4 3 1 2 2 2 2 2 3 4 5 8 9 9 9 7 8 12 15 19
6 5 7 8 7 8 9 10 9 8 6 6 5 5 6 5 5 5 4 4 3 2 2 2 2 3 3 3 5 7 7 8 7 3 3 8 13 17
7 7 8 10 9 5 3 5 8 10 8 6 5 4 4 5 6 6 6 4 2 3 2 2 2 3 3 4 6 5 6 7 7 6 6 10 14 17
7 7 8 8 10 8 5 5 5 5 5 4 3 3 3 4 5 6 6 4 1 2 3 2 2 1 2 2 6 6 5 7 7 8 9 12 14 17
8 8 8 7 12 12 7 6 6 4 2 1 3 5 6 7 5 5 7 7 4 2 5 3 3 2 1 2 3 5 5 6 6 8 9 11 13 13
6 7 11 8 10 11 6 6 6 6 7 7 3 3 3 3 4 3 4 5 6 4 6 5 4 4 3 1 1 2 2 4 5 6 8 10 11 6
5 6 5 6 8 8 6 4 5 6 6 4 3 4 4 5 5 5 4 3 3 3 5 5 4 4 3 3 1 1 1 1 1 3 5 8 8 5
6 6 4 4 5 6 4 7 10 9 5 4 4 5 4 4 4 5 5 4 2 1 2 4 3 4 4 4 3 2 0 1 1 1 3 5 5 4
5 7 6 4 2 2 2 5 6 5 5 4 5 4 4 4 4 4 6 6 5 4 4 4 4 4 3 3 4 4 2 2 1 1 1 3 3 3
5 5 4 2 1 3 2 1 1 3 3 3 4 4 4 4 4 4 4 5 4 4 5 7 7 5 3 4 3 5 5 4 3 2 1 1 2 2
5 3 3 3 4 3 2 2 3 3 3 3 3 4 4 4 4 4 4 4 4 4 5 5 7 6 4 4 4 4 4 4 4 3 2 1 0 2
3 4 5 5 4 2 2 3 4 3 3 2 3 3 4 4 4 3 4 4 4 4 4 4 6 6 5 3 5 5 4 4 4 4 3 2 2 1
2 4 3 3 2 3 2 3 4 4 1 2 3 3 3 3 3 3 3 4 4 4 3 3 4 5 6 6 4 5 4 4 4 4 4 3 2 1
5 5 3 3 2 2 3 3 3 4 2 2 2 2 3 3 3 4 3 3 4 4 4 3 3 3 3 4 3 3 5 4 4 4 4 4 2 3
7 6 4 4 4 4 3 3 2 3 3 1 2 2 2 3 3 3 3 4 3 3 4 4 3 5 4 3 3 3 2 2 1 2 3 4 3 2
6 5 4 4 4 4 4 3 2 3 3 2 2 2 2 3 3 4 3 4 3 4 4 4 5 4 4 4 4 4 3 2 1 1 0 0 2 2
5 5 5 4 4 4 4 4 4 2 2 2 2 2 2 2 2 3 3 4 4 4 4 5 5 5 4 4 4 4 5 5 3 1 1 3 3 4
Wind_Direction
231 241 238 279 292 295 5 4 349 351 359 36 40 83 54 51 56 323 350 183 197 201 209 221 233 247 261 268 270 268 266 264 262 259 253 238 221 213
213 191 135 42 356 355 6 352 30 16 351 8 7 20 28 348 33 336 314 200 209 209 215 227 247 265 277 279 278 274 269 264 261 255 247 236 222 211
153 111 91 70 40 20 11 9 13 21 356 1 26 25 25 357 347 327 304 252 224 210 213 222 248 274 284 285 284 281 277 270 264 256 245 233 221 207
84 72 62 63 50 38 8 16 5 9 20 27 30 23 29 3 351 345 356 339 307 188 201 217 253 283 292 293 292 291 286 279 269 257 244 229 216 203
71 67 61 55 42 20 26 20 12 21 35 67 65 41 33 11 6 12 29 7 10 45 192 230 271 293 300 306 304 302 297 291 279 260 241 224 208 195
69 65 60 54 37 9 38 24 20 18 39 62 61 44 28 10 12 1 18 19 27 14 10 2 314 306 315 316 319 319 316 312 296 269 241 218 199 187
88 84 77 74 62 50 54 33 28 32 36 45 46 41 22 10 3 344 359 350 46 26 349 5 336 332 328 328 332 332 334 335 322 289 242 209 189 176
79 98 99 70 65 70 74 64 55 51 39 43 38 31 21 3 346 338 340 345 350 4 346 358 351 352 347 353 350 350 359 2 357 342 205 177 167 160
58 47 60 50 35 21 60 83 67 60 57 62 48 22 19 352 343 337 335 337 350 344 336 339 353 354 354 10 7 17 29 33 42 64 103 126 132 132
65 63 67 45 22 7 34 57 62 51 41 59 45 1 2 336 338 337 337 343 48 19 353 343 346 338 346 7 14 27 49 63 69 80 94 108 116 120
69 53 62 51 22 21 32 34 31 19 344 315 283 288 298 308 321 349 356 358 357 25 10 347 332 313 318 351 10 32 49 72 90 98 104 111 116 118
109 86 66 58 38 30 30 30 18 348 336 327 293 284 311 346 358 19 11 357 355 357 4 347 343 341 329 330 358 5 39 66 96 118 126 128 135 135
128 107 80 59 49 31 27 34 357 323 308 320 359 18 17 21 15 4 2 356 358 351 352 347 339 344 329 317 319 347 15 49 75 110 133 149 161 167
85 102 106 81 54 26 23 7 358 354 352 5 16 14 12 15 349 339 341 336 313 294 355 358 343 347 342 336 338 341 353 62 77 94 114 143 163 188
87 109 125 117 46 315 339 357 8 18 6 10 12 5 355 350 342 352 354 348 349 18 37 19 5 357 1 1 350 350 357 24 33 56 124 133 140 149
132 129 144 164 271 298 299 294 89 50 9 10 6 353 347 351 360 8 356 342 353 4 15 16 5 7 7 6 23 21 17 13 0 0 48 116 145 159
141 155 184 195 214 220 192 119 84 55 23 22 16 1 354 354 359 4 2 353 357 359 3 8 2 360 32 25 27 26 23 16 8 9 20 20 190 161
155 203 208 210 195 166 128 126 110 77 17 19 33 11 352 350 358 360 21 6 351 351 2 18 16 358 349 32 25 12 12 10 2 7 18 14 10 68
204 243 218 172 160 149 126 102 106 112 59 31 52 17 349 348 2 359 36 11 345 341 354 33 34 10 357 353 354 14 10 5 5 5 7 6 2 58
230 241 191 151 147 115 103 94 100 107 77 26 67 33 352 348 4 353 21 27 336 333 355 30 34 357 328 312 320 22 36 22 4 356 351 345 8 73
218 224 185 168 161 148 136 140 142 127 123 272 92 56 359 352 10 350 356 6 337 350 1 2 358 327 303 328 351 14 35 45 15 355 345 342 343 3
214 199 174 165 152 150 150 169 176 149 155 178 99 62 25 12 358 350 3 355 353 7 356 344 349 345 344 351 349 353 4 350 18 105 99 146 341 348
212 182 164 160 160 165 182 191 185 174 157 137 111 88 48 12 337 345 4 3 358 2 358 351 351 342 344 346 348 351 357 352 349 326 196 215 239 262